This demonstration page uses our WeatherBlox Daily Observations layout. Learn more.

Left ArrowRight Arrow

39.95238, -75.16362

Hourly Observations for November 28, 2019

Temp ( °F °C ) Dew Point ( °F °C ) Humidity (%) Winds ( mph kmh ) Pressure ( in mb ) Visibility ( mi km ) Precip ( " mm )
12:54 am 00:54 Cloudy 52 11.1 26 -3.3 37 37 W 30 48 29.75 1008 10 16 0.00 0.00
1:54 am 01:54 Mostly Cloudy 50 10 25 -3.9 38 38 WNW 28 44 29.78 1009 10 16 0.00 0.00
2:54 am 02:54 Mostly Clear 48 8.9 25 -3.9 41 41 W 20 31 29.81 1009 10 16 0.00 0.00
3:54 am 03:54 Mostly Cloudy 48 8.9 24 -4.4 39 39 WNW 24 39 29.82 1010 10 16 0.00 0.00
4:54 am 04:54 Mostly Cloudy 47 8.3 25 -3.9 42 42 WNW 28 44 29.82 1010 10 16 0.00 0.00
5:54 am 05:54 Partly Cloudy 46 7.8 26 -3.3 46 46 WNW 23 37 29.82 1010 10 16 0.00 0.00
6:54 am 06:54 Mostly Clear 46 7.8 27 -2.8 47 47 WNW 18 30 29.86 1011 10 16 0.00 0.00
7:54 am 07:54 Mostly Sunny 46 7.8 28 -2.2 50 50 WNW 17 28 29.88 1012 10 16 0.00 0.00
8:54 am 08:54 Mostly Cloudy 47 8.3 28 -2.2 48 48 WNW 13 20 29.92 1013 10 16 0.00 0.00
9:54 am 09:54 Mostly Cloudy 48 8.9 28 -2.2 46 46 W 16 26 29.91 1013 10 16 0.00 0.00
10:54 am 10:54 Mostly Cloudy 51 10.6 28 -2.2 41 41 WNW 26 43 29.91 1013 10 16 0.00 0.00
11:54 am 11:54 Mostly Cloudy 52 11.1 29 -1.7 41 41 WNW 23 37 29.93 1013 10 16 0.00 0.00
12:54 pm 12:54 Mostly Cloudy 51 10.6 29 -1.7 43 43 NW 24 39 29.94 1014 10 16 0.00 0.00
1:54 pm 13:54 Mostly Cloudy 51 10.6 27 -2.8 39 39 NW 29 46 29.96 1015 10 16 0.00 0.00
2:54 pm 14:54 Mostly Cloudy 50 10 27 -2.8 41 41 NNW 31 50 30.01 1016 10 16 0.00 0.00
3:54 pm 15:54 Mostly Cloudy 48 8.9 27 -2.8 44 44 NNW 23 37 30.05 1018 10 16 0.00 0.00
4:54 pm 16:54 Partly Cloudy 45 7.2 28 -2.2 52 52 NNW 20 31 30.07 1018 10 16 0.00 0.00
5:54 pm 17:54 Partly Cloudy 44 6.7 28 -2.2 53 53 NW 13 20 30.12 1020 10 16 0.00 0.00
6:54 pm 18:54 Partly Cloudy 43 6.1 28 -2.2 56 56 NNW 23 37 30.16 1021 10 16 0.00 0.00
7:54 pm 19:54 Partly Cloudy 41 5 26 -3.3 55 55 NNW 17 28 30.19 1022 10 16 0.00 0.00
8:54 pm 20:54 Mostly Clear 41 5 27 -2.8 57 57 NNW 16 26 30.20 1023 10 16 0.00 0.00
9:54 pm 21:54 Mostly Cloudy 40 4.4 27 -2.8 60 60 NNW 13 20 30.21 1023 10 16 0.00 0.00
10:54 pm 22:54 Partly Cloudy 40 4.4 26 -3.3 58 58 NNW 17 28 30.21 1023 10 16 0.00 0.00
11:54 pm 23:54 Partly Cloudy 39 3.9 26 -3.3 60 60 NNW 15 24 30.23 1024 10 16 0.00 0.00

Powered by AerisWeather